Dillon, MT

4:47 PM MDT on August 24, 2016 (GMT -0600)
Dillon

Weather History for KDLN - December, 2013

Change the Weather History Date:

Monday, December 2, 2013

  Actual Average Record
Temperature  
Mean Temperature 31 °F 23 °F  
Max Temperature 49 °F 32 °F 55 °F (1975)
Min Temperature 12 °F 13 °F -7 °F (1985)
Degree Days  
Heating Degree Days 34    
Month to date heating degree days 59  
Since 1 July heating degree days 1988  
Cooling Degree Days 0    
Month to date cooling degree days 0  
Year to date cooling degree days 247  
Moisture  
Dew Point 25 °F    
Average Humidity 73    
Maximum Humidity 100    
Minimum Humidity 45    
Precipitation  
Precipitation 0.08 in 0.01 in 0.25 in (1955)
Month to date precipitation 0.08 0.02  
Year to date precipitation 9.89 10.32  
Snow  
Snow 0.00 in - - ()
Snow Depth 0.00 in    
Sea Level Pressure  
Sea Level Pressure 29.57 in    
Wind  
Wind Speed 17 mph (NNE)    
Max Wind Speed 36 mph    
Max Gust Speed 45 mph    
Visibility 4 miles    
Events Fog , Snow    
T = Trace of Precipitation, MM = Missing Value Source: NWS Daily Summary

Daily Weather History Graph

Daily Weather History Graph

Search for Another Location

Airport or City:

Trip Planner

Search our weather history database for the weather conditions in past years. The results will help you decide how hot, cold, wet, or windy it might be!

Date:

Astronomy

Dec. 02, 2013 Rise Set
Actual Time 7:50 AM MST 4:48 PM MST
Civil Twilight 7:17 AM MST 5:22 PM MST
Nautical Twilight 6:40 AM MST 5:59 PM MST
Astronomical Twilight 6:04 AM MST 6:34 PM MST
Moon 7:18 AM MST (12/2) 4:56 PM MST (12/2)
Length of Visible Light 10h 05m
Length of Day
8h 58m
Waning Crescent, 0% of the Moon is Illuminated
Dec 2
Waning Crescent
Dec 2
New
Dec 9
First Quarter
Dec 17
Full
Dec 25
Last Quarter

Hourly Weather History & Observations

Time (MST) Temp. Windchill Dew Point Humidity Pressure Visibility Wind Dir Wind Speed Gust Speed Precip Events Conditions
12:53 AM 42.1 °F 37.1 °F 32.0 °F 67% 29.65 in 10.0 mi South 8.1 mph - N/A   Clear
1:53 AM 44.1 °F 36.8 °F 30.9 °F 60% 29.62 in 10.0 mi WSW 16.1 mph 21.9 mph N/A   Clear
2:53 AM 46.0 °F 38.5 °F 30.0 °F 54% 29.59 in 10.0 mi WSW 19.6 mph - N/A   Scattered Clouds
3:53 AM 45.0 °F 37.1 °F 30.9 °F 58% 29.58 in 10.0 mi WSW 19.6 mph 28.8 mph N/A   Scattered Clouds
4:53 AM 44.1 °F 36.5 °F 30.0 °F 58% 29.57 in 10.0 mi SW 17.3 mph - N/A   Partly Cloudy
5:53 AM 44.1 °F 36.8 °F 28.9 °F 55% 29.55 in 10.0 mi SW 16.1 mph - N/A   Clear
6:53 AM 42.1 °F 33.9 °F 28.9 °F 60% 29.55 in 10.0 mi SW 17.3 mph - N/A   Partly Cloudy
7:53 AM 42.1 °F 33.6 °F 28.0 °F 58% 29.55 in 10.0 mi WSW 18.4 mph - N/A   Scattered Clouds
8:53 AM 43.0 °F 34.8 °F 28.9 °F 58% 29.53 in 10.0 mi WSW 18.4 mph - N/A   Scattered Clouds
9:53 AM 42.1 °F 33.3 °F 30.0 °F 62% 29.52 in 10.0 mi SSW 19.6 mph 25.3 mph N/A   Partly Cloudy
10:11 AM 43.0 °F 34.0 °F 28.9 °F 58% 29.53 in 10.0 mi SW 21.9 mph 29.9 mph N/A   Mostly Cloudy
10:53 AM 46.9 °F - 27.0 °F 46% 29.46 in 10.0 mi SSW 25.3 mph 32.2 mph N/A   Scattered Clouds
11:53 AM 46.0 °F 37.8 °F 26.1 °F 46% 29.43 in 10.0 mi SW 23.0 mph 31.1 mph N/A   Scattered Clouds
12:53 PM 46.0 °F 39.6 °F 32.0 °F 58% 29.40 in 10.0 mi West 15.0 mph - 0.00 in   Overcast
1:38 PM 37.0 °F 24.9 °F 30.0 °F 76% 29.46 in 5.0 mi West 27.6 mph 39.1 mph 0.00 in Snow Light Snow
1:45 PM 37.0 °F 24.3 °F 30.9 °F 79% 29.46 in 7.0 mi West 31.1 mph 42.6 mph 0.00 in Snow Light Snow
1:53 PM 36.0 °F 25.3 °F 32.0 °F 86% 29.44 in 7.0 mi West 19.6 mph 39.1 mph 0.01 in Snow Light Snow
2:34 PM 34.0 °F 23.4 °F 32.0 °F 92% 29.47 in 6.0 mi NNW 17.3 mph 29.9 mph 0.00 in Snow Light Snow
2:53 PM 33.1 °F 23.4 °F 32.0 °F 96% 29.45 in 5.0 mi NNE 13.8 mph - 0.00 in Snow Light Snow
2:56 PM 33.1 °F 23.4 °F 32.0 °F 96% 29.48 in 2.5 mi NE 13.8 mph - 0.00 in Snow Light Snow
3:02 PM 33.1 °F 24.4 °F 32.0 °F 96% 29.48 in 1.0 mi NE 11.5 mph - 0.00 in Snow Light Snow
3:20 PM 32.0 °F 23.6 °F 30.9 °F 96% 29.49 in 0.8 mi NE 10.4 mph - 0.01 in Snow Light Snow
3:43 PM 32.0 °F 24.2 °F 30.9 °F 96% 29.52 in 0.5 mi North 9.2 mph - 0.03 in Fog , Snow Snow
3:53 PM 30.9 °F 20.7 °F 30.0 °F 96% 29.51 in 0.5 mi NNW 13.8 mph 20.7 mph 0.04 in Fog , Snow Snow
4:01 PM 30.9 °F 21.2 °F 30.0 °F 96% 29.52 in 0.2 mi NNE 12.7 mph - 0.00 in Fog , Snow Heavy Snow
4:09 PM 30.9 °F 23.5 °F 28.9 °F 92% 29.52 in 0.5 mi NNE 8.1 mph - 0.00 in Fog , Snow Snow
4:30 PM 30.0 °F 19.5 °F 28.9 °F 96% 29.53 in 0.8 mi NNE 13.8 mph - 0.01 in Snow Light Snow
4:53 PM 30.0 °F 19.5 °F 28.0 °F 92% 29.55 in 1.0 mi NNE 13.8 mph - 0.02 in Snow Light Snow
5:03 PM 30.0 °F 19.1 °F 28.0 °F 92% 29.53 in 1.0 mi NNE 15.0 mph - 0.00 in Snow Light Snow
5:10 PM 28.9 °F 16.5 °F 27.0 °F 92% 29.55 in 0.8 mi NE 18.4 mph - 0.00 in Snow Light Snow
5:17 PM 28.9 °F 16.9 °F 27.0 °F 92% 29.55 in 1.2 mi NNE 17.3 mph - 0.00 in Snow Light Snow
5:28 PM 28.0 °F 15.3 °F 25.0 °F 88% 29.58 in 1.8 mi NNE 18.4 mph - 0.00 in Snow Light Snow
5:39 PM 27.0 °F 13.9 °F 25.0 °F 92% 29.59 in 2.0 mi NNE 18.4 mph - 0.00 in Snow Light Snow
5:48 PM 26.6 °F 13.8 °F 24.8 °F 93% 29.60 in 4.0 mi NE 17.3 mph - 0.00 in Snow Light Snow
5:53 PM 27.0 °F 13.5 °F 24.1 °F 89% 29.62 in 7.0 mi NNE 19.6 mph - 0.00 in Snow Light Snow
6:15 PM 26.1 °F 14.0 °F 23.0 °F 88% 29.63 in 1.8 mi NE 15.0 mph - 0.00 in Snow Light Snow
6:21 PM 26.1 °F 12.3 °F 23.0 °F 88% 29.58 in 0.8 mi NE 19.6 mph - 0.00 in Snow Light Snow
6:42 PM 25.0 °F 12.2 °F 23.0 °F 92% 29.61 in 1.2 mi NE 16.1 mph 23.0 mph 0.01 in Snow Light Snow
6:53 PM 25.0 °F 12.6 °F 21.9 °F 88% 29.65 in 1.5 mi NE 15.0 mph - 0.01 in Snow Light Snow
7:07 PM 25.0 °F 12.2 °F 21.9 °F 88% 29.62 in 3.0 mi NE 16.1 mph - 0.00 in Snow Light Snow
7:25 PM 24.1 °F 11.5 °F 21.0 °F 88% 29.62 in 2.0 mi ENE 15.0 mph - 0.00 in Snow Light Snow
7:34 PM 24.1 °F 13.1 °F 21.0 °F 88% 29.63 in 1.5 mi ENE 11.5 mph - 0.00 in Snow Light Snow
7:53 PM 24.1 °F 13.1 °F 21.0 °F 88% 29.68 in 1.5 mi NE 11.5 mph - 0.00 in Snow Light Snow
8:29 PM 24.1 °F 12.5 °F 21.0 °F 88% 29.63 in 2.0 mi NE 12.7 mph - 0.00 in Snow Light Snow
8:36 PM 24.1 °F 11.5 °F 21.0 °F 88% 29.63 in 3.0 mi NE 15.0 mph - 0.00 in Snow Light Snow
8:53 PM 23.0 °F 11.1 °F 19.9 °F 88% 29.68 in 7.0 mi NE 12.7 mph - 0.00 in Snow Light Snow
9:27 PM 19.9 °F 3.9 °F 18.0 °F 92% 29.64 in 2.5 mi NE 20.7 mph - 0.00 in Snow Light Snow
9:41 PM 18.0 °F 1.3 °F 14.0 °F 84% 29.64 in 4.0 mi NE 20.7 mph - 0.00 in Snow Light Snow
9:53 PM 17.1 °F 0.1 °F 12.9 °F 84% 29.72 in 5.0 mi NE 20.7 mph - 0.00 in Snow Light Snow
10:53 PM 14.0 °F -4.7 °F 10.0 °F 84% 29.72 in 7.0 mi ENE 23.0 mph - 0.00 in Snow Light Snow
11:10 PM 12.9 °F -5.3 °F 9.0 °F 84% 29.65 in 2.5 mi ENE 20.7 mph - 0.00 in Snow Light Snow
11:30 PM 12.9 °F -4.4 °F 9.0 °F 84% 29.67 in 3.0 mi ENE 18.4 mph - 0.00 in Snow Light Snow
11:37 PM 12.9 °F -4.4 °F 9.0 °F 84% 29.67 in 2.0 mi ENE 18.4 mph - 0.00 in Snow Light Snow
11:43 PM 12.0 °F -6.9 °F 8.1 °F 84% 29.66 in 1.5 mi ENE 21.9 mph - 0.00 in Snow Light Snow
11:53 PM 12.0 °F -6.9 °F 8.1 °F 84% 29.74 in 1.5 mi ENE 21.9 mph - 0.00 in Snow Light Snow